Ballina Observation History
Time Wind Speed Temp Pressure Rel. Hum Rain
20/10:00am ESE 12-16 kts 24.9°c 1024.1 hPa 75% 0.0mm
20/09:30am ESE 12-16 kts 25.2°c 1024.2 hPa 79% 0.0mm
20/09:00am ESE 10-17 kts 24.2°c 1024.2 hPa 76% 9.4mm
20/08:30am ENE 4-8 kts 22.2°c 1024.1 hPa 92% 9.4mm
20/08:00am ENE 14-21 kts 21.6°c 1024.1 hPa 91% 9.4mm
20/07:52am ENE 14-21 kts 21.9°c 1024.0 hPa 94% 9.4mm
20/07:41am E 10-17 kts 22.3°c 1023.9 hPa 97% 9.4mm
20/07:30am ESE 11-16 kts 22.8°c 1023.6 hPa 93% 9.4mm
20/07:00am ESE 10-18 kts 22.5°c 1023.4 hPa 82% 9.4mm
20/06:30am ESE 10-15 kts 22.6°c 1023.0 hPa 83% 9.4mm
20/06:00am ESE 9-15 kts 22.5°c 1022.7 hPa 83% 9.4mm
20/05:30am ESE 10-15 kts 22.4°c 1022.6 hPa 87% 9.4mm
20/05:00am ESE 8-13 kts 21.9°c 1022.4 hPa 86% 9.4mm
20/04:30am ESE 9-13 kts 21.7°c 1022.2 hPa 88% 9.4mm
20/04:00am ESE 7-11 kts 22.1°c 1022.3 hPa 86% 9.0mm
20/03:30am ESE 9-12 kts 22.2°c 1022.2 hPa 87% 9.0mm
20/03:00am E 10-13 kts 21.9°c 1022.3 hPa 87% 9.0mm
20/02:39am E 6-12 kts 21.5°c 1022.3 hPa 92% 9.0mm
20/02:30am E 4-9 kts 21.3°c 1022.3 hPa 92% 9.0mm
20/02:20am SE 5-9 kts 21.0°c 1022.5 hPa 92% 8.8mm
20/02:00am ESE 11-17 kts 21.6°c 1022.6 hPa 89% 8.2mm
20/01:30am E 8-11 kts 22.0°c 1022.8 hPa 84% 8.0mm
20/01:00am E 8-12 kts 21.8°c 1023.1 hPa 86% 8.0mm
20/12:30am E 6-9 kts 21.5°c 1023.1 hPa 90% 8.0mm
20/12:15am E 10-14 kts 21.8°c 1023.3 hPa 91% 8.0mm
20/12:00am E 9-16 kts 21.5°c 1023.3 hPa 87% 8.0mm
Time Wind Speed Temp Pressure Rel. Hum Rain
19/11:57pm E 8-16 kts 21.6°c 1023.4 hPa 85% 7.8mm
19/11:30pm E 8-11 kts 22.4°c 1023.5 hPa 85% 7.2mm
19/11:00pm E 7-10 kts 22.0°c 1023.6 hPa 88% 7.2mm
19/10:30pm E 8-10 kts 21.9°c 1023.8 hPa 90% 7.2mm
19/10:24pm E 7-9 kts 21.7°c 1023.8 hPa 90% 7.2mm
19/10:05pm E 8-10 kts 21.5°c 1024.0 hPa 93% 7.0mm
19/10:00pm E 8-10 kts 21.2°c 1023.9 hPa 91% 6.2mm
19/09:30pm E 11-17 kts 22.1°c 1024.1 hPa 85% 5.6mm
19/09:00pm ESE 8-12 kts 22.4°c 1024.0 hPa 86% 5.6mm
19/08:30pm E 9-12 kts 22.4°c 1023.9 hPa 86% 5.6mm
19/08:00pm ESE 9-12 kts 22.3°c 1023.7 hPa 87% 5.6mm
19/07:30pm ESE 11-16 kts 22.0°c 1023.5 hPa 88% 5.6mm
19/07:00pm SE 8-13 kts 21.8°c 1023.3 hPa 94% 5.6mm
19/06:30pm ESE 7-10 kts 21.4°c 1023.1 hPa 94% 5.4mm
19/06:16pm ESE 8-10 kts 21.1°c 1023.2 hPa 94% 5.4mm
19/06:04pm ESE 11-17 kts 21.0°c 1023.1 hPa 91% 5.4mm
19/06:00pm ESE 11-17 kts 21.1°c 1023.1 hPa 91% 5.4mm
19/05:33pm ENE 8-12 kts 20.6°c 1022.8 hPa 93% 5.0mm
19/05:30pm ENE 9-12 kts 20.7°c 1022.8 hPa 93% 5.0mm
19/05:02pm E 10-21 kts 21.5°c 1022.7 hPa 100% 4.0mm
19/05:00pm E 9-21 kts 22.1°c 1022.7 hPa 100% 3.2mm
19/04:30pm E 5-8 kts 21.6°c 1022.4 hPa 100% 3.2mm
19/04:00pm E 11-17 kts 20.9°c 1022.5 hPa 99% 2.6mm
19/03:40pm ESE 14-25 kts 20.8°c 1022.4 hPa 100% 2.6mm
19/03:39pm ESE 13-25 kts 20.9°c 1022.4 hPa 99% 2.4mm
19/03:30pm SE 8-13 kts 21.9°c 1022.2 hPa 93% 2.2mm
19/03:18pm ESE 15-23 kts 22.0°c 1022.3 hPa 82% 1.4mm
19/03:00pm ESE 9-12 kts 23.8°c 1022.2 hPa 79% 0.4mm
19/02:30pm SE 11-15 kts 24.2°c 1022.2 hPa 77% 0.4mm
19/02:00pm SSE 8-12 kts 24.3°c 1022.3 hPa 86% 0.4mm
19/01:39pm SSE 11-15 kts 23.4°c 1022.3 hPa 86% 0.4mm
19/01:30pm SSE 13-20 kts 23.1°c 1022.4 hPa 87% 0.4mm
19/01:27pm SE 14-22 kts 23.0°c 1022.4 hPa 90% 0.4mm
19/01:00pm SE 14-20 kts 24.0°c 1022.7 hPa 81% 0.2mm
19/12:35pm SE 9-13 kts 23.7°c 1022.9 hPa 80% 0.2mm
19/12:30pm SSE 10-14 kts 23.3°c 1022.9 hPa 85% 0.2mm
19/12:22pm SE 15-24 kts 22.0°c 1023.1 hPa 84% 0.2mm
19/12:15pm SE 15-26 kts 23.1°c 1023.2 hPa 76% 0.0mm
19/12:00pm SSE 10-15 kts 24.9°c 1023.3 hPa 76% 0.0mm
19/11:30am SSE 13-19 kts 23.5°c 1024.0 hPa 77% 0.0mm
19/11:00am SSE 12-17 kts 24.7°c 1024.4 hPa 73% 0.0mm
19/10:30am ESE 12-16 kts 25.2°c 1024.6 hPa 74% 0.0mm
19/10:00am SE 12-16 kts 24.4°c 1024.9 hPa 72% 0.0mm
19/09:30am SE 11-15 kts 24.9°c 1024.9 hPa 73% 0.0mm
19/09:00am SE 11-15 kts 24.2°c 1025.1 hPa 75% 9.0mm
19/08:30am SE 13-17 kts 23.4°c 1025.0 hPa 80% 9.0mm
19/08:00am SE 9-13 kts 23.4°c 1024.7 hPa 83% 9.0mm
19/07:30am S 3-8 kts 21.5°c 1024.5 hPa 100% 9.0mm
19/07:24am SE 3-6 kts 22.0°c 1024.4 hPa 98% 9.0mm
19/07:05am SE 7-15 kts 21.2°c 1024.2 hPa 100% 8.8mm
19/07:00am SSW 4-8 kts 19.9°c 1024.2 hPa 98% 8.2mm
19/06:30am WSW 6-8 kts 19.4°c 1023.8 hPa 99% 8.2mm
19/06:00am SW 6-8 kts 19.6°c 1023.4 hPa 100% 8.2mm
19/05:30am SSE 8-12 kts 21.6°c 1023.1 hPa 95% 8.2mm
19/05:00am SSE 8-10 kts 21.0°c 1023.0 hPa 93% 8.2mm
19/04:30am SSE 6-9 kts 20.5°c 1022.7 hPa 94% 8.2mm
19/04:00am S 7-12 kts 20.6°c 1022.6 hPa 95% 8.2mm
19/03:54am S 5-11 kts 20.1°c 1022.6 hPa 97% 8.2mm
19/03:32am SSE 11-17 kts 20.4°c 1022.8 hPa 93% 7.2mm
19/03:30am SSE 10-17 kts 21.0°c 1022.7 hPa 90% 6.8mm
19/03:00am S 7-11 kts 21.0°c 1022.6 hPa 88% 6.6mm
19/02:30am SE 9-16 kts 21.7°c 1022.9 hPa 85% 6.6mm
19/02:00am SE 8-11 kts 21.5°c 1023.1 hPa 85% 6.6mm
19/01:30am SE 7-11 kts 21.2°c 1023.5 hPa 89% 6.6mm
19/01:00am SSE 6-9 kts 20.9°c 1023.7 hPa 90% 6.6mm
19/12:30am SSE 9-17 kts 20.8°c 1023.8 hPa 89% 6.6mm
19/12:00am SE 8-12 kts 22.1°c 1024.0 hPa 89% 6.2mm
Time Wind Speed Temp Pressure Rel. Hum Rain
18/11:30pm SE 8-12 kts 21.9°c 1024.0 hPa 83% 6.2mm
18/11:00pm SE 9-14 kts 22.3°c 1024.2 hPa 85% 6.2mm
18/10:30pm SE 9-12 kts 22.1°c 1024.3 hPa 85% 6.2mm
18/10:00pm SE 8-12 kts 21.8°c 1024.3 hPa 86% 6.2mm
18/09:30pm SE 8-12 kts 21.6°c 1024.4 hPa 87% 6.2mm
18/09:00pm S 4-5 kts 20.7°c 1024.1 hPa 97% 6.2mm
18/08:59pm S 4-5 kts 20.7°c 1024.1 hPa 97% 6.2mm
18/08:40pm ESE 9-14 kts 20.8°c 1024.1 hPa 96% 5.8mm
18/08:30pm SE 9-13 kts 21.2°c 1024.0 hPa 88% 5.2mm
18/08:00pm SSE 7-13 kts 21.7°c 1023.8 hPa 85% 5.0mm
18/07:30pm SSE 8-12 kts 21.4°c 1023.5 hPa 87% 5.0mm
18/07:00pm SE 7-10 kts 21.9°c 1023.3 hPa 76% 5.0mm
18/06:30pm SE 9-14 kts 22.5°c 1023.0 hPa 76% 5.0mm
18/06:00pm SSE 8-12 kts 22.1°c 1022.5 hPa 76% 5.0mm
18/05:30pm SE 10-12 kts 22.4°c 1022.2 hPa 75% 5.0mm
18/05:00pm SSE 9-12 kts 22.5°c 1022.0 hPa 75% 5.0mm
18/04:30pm SSE 9-14 kts 23.6°c 1021.7 hPa 73% 5.0mm
18/04:00pm S 9-14 kts 23.9°c 1021.5 hPa 77% 5.0mm
18/03:30pm S 11-17 kts 23.8°c 1021.6 hPa 78% 5.0mm
18/03:00pm S 9-13 kts 23.4°c 1021.7 hPa 82% 5.0mm
18/02:30pm S 12-19 kts 23.5°c 1021.8 hPa 76% 4.8mm
18/02:00pm S 11-14 kts 23.6°c 1021.7 hPa 80% 4.8mm
18/01:30pm S 11-18 kts 23.0°c 1021.9 hPa 88% 4.8mm
18/01:21pm SSW 6-11 kts 22.1°c 1022.0 hPa 97% 4.8mm
18/01:00pm SSW 13-19 kts 21.7°c 1022.3 hPa 84% 2.0mm
18/12:30pm SSW 12-18 kts 22.7°c 1022.4 hPa 83% 0.6mm
18/12:00pm S 12-18 kts 22.8°c 1022.8 hPa 86% 0.6mm
18/11:30am S 9-14 kts 22.8°c 1023.0 hPa 79% 0.6mm
18/11:29am S 9-13 kts 22.9°c 1023.0 hPa 81% 0.6mm
18/11:13am S 13-17 kts 22.1°c 1023.2 hPa 80% 0.6mm
18/11:00am SSW 10-14 kts 23.6°c 1023.4 hPa 77% 0.2mm
18/10:30am SW 9-12 kts 22.7°c 1023.6 hPa 79% 0.2mm
18/10:00am SW 9-13 kts 22.8°c 1023.9 hPa 80% 0.2mm
18/09:30am SW 9-13 kts 22.1°c 1023.8 hPa 88% 0.0mm
18/09:00am SW 9-12 kts 21.5°c 1023.7 hPa 92% 4.6mm
18/08:30am SW 8-11 kts 21.1°c 1023.7 hPa 94% 4.6mm
18/08:00am SW 8-11 kts 19.8°c 1023.4 hPa 96% 4.6mm
18/07:30am W 6-8 kts 18.4°c 1023.2 hPa 96% 4.6mm
18/07:00am WSW 6-8 kts 17.2°c 1023.0 hPa 98% 4.6mm
18/06:30am W 5 kts 16.4°c 1022.6 hPa 98% 4.6mm
18/06:00am W 7 kts 16.4°c 1022.0 hPa 99% 4.6mm
18/05:30am W 3-4 kts 17.2°c 1022.0 hPa 100% 4.6mm
18/05:00am W 5-6 kts 17.2°c 1021.9 hPa 100% 4.6mm
18/04:30am W 6-7 kts 17.5°c 1021.7 hPa 100% 4.6mm
18/04:09am WSW 8-9 kts 17.7°c 1021.7 hPa 100% 4.4mm
18/04:00am WSW 9-10 kts 17.7°c 1021.8 hPa 100% 3.8mm
18/03:57am WSW 8-10 kts 17.7°c 1021.8 hPa 100% 3.8mm
18/03:30am W 6-7 kts 17.5°c 1021.5 hPa 100% 3.2mm
18/03:16am WSW 7-9 kts 17.7°c 1021.5 hPa 100% 3.2mm
18/03:00am WSW 6-7 kts 17.9°c 1021.7 hPa 100% 2.8mm
18/02:30am S 4-6 kts 17.7°c 1022.0 hPa 100% 2.0mm
18/02:00am WSW 7-8 kts 17.6°c 1022.0 hPa 100% 1.8mm
18/01:30am WSW 7-9 kts 18.0°c 1022.2 hPa 100% 1.8mm
18/01:00am WSW 6-7 kts 18.3°c 1022.5 hPa 100% 1.8mm
18/12:30am WSW 7-9 kts 18.5°c 1022.7 hPa 100% 1.8mm
18/12:00am WSW 6-9 kts 18.6°c 1022.6 hPa 100% 1.6mm